This demonstration page uses our WeatherBlox Daily Observations layout. Learn more.

Left ArrowRight Arrow

39.95238, -75.16362

Hourly Observations for May 15, 2015

Temp ( °F °C ) Dew Point ( °F °C ) Humidity (%) Winds ( mph kmh ) Pressure ( in mb ) Visibility ( mi km ) Precip ( " mm )
12:54 am 00:54 Partly Cloudy 57 13.9 45 7.2 64 64 Calm 30.34 1027 10 16 0.00 0.00
1:54 am 01:54 Mostly Clear 56 13.3 46 7.8 70 70 S 6 9 30.33 1027 10 16 0.00 0.00
2:54 am 02:54 Partly Cloudy 55 12.8 46 7.8 72 72 S 6 9 30.31 1027 10 16 0.00 0.00
3:54 am 03:54 Partly Cloudy 55 12.8 46 7.8 72 72 SSW 7 11 30.31 1027 10 16 0.00 0.00
4:54 am 04:54 Mostly Cloudy 55 12.8 47 8.3 74 74 SSW 6 9 30.32 1027 10 16 0.00 0.00
5:54 am 05:54 Cloudy 57 13.9 48 8.9 72 72 SW 3 6 30.32 1027 10 16 0.00 0.00
6:54 am 06:54 Cloudy 56 13.3 48 8.9 75 75 S 7 11 30.33 1027 10 16 0.00 0.00
7:54 am 07:54 Cloudy 58 14.4 49 9.4 72 72 W 7 11 30.35 1028 10 16 0.00 0.00
8:54 am 08:54 Cloudy 59 15 50 10 72 72 S 5 7 30.34 1028 10 16 0.00 0.00
9:54 am 09:54 Mostly Cloudy 63 17.2 50 10 63 63 SW 6 9 30.33 1027 10 16 0.00 0.00
10:54 am 10:54 Partly Cloudy 67 19.4 48 8.9 51 51 WSW 10 17 30.32 1027 10 16 0.00 0.00
11:54 am 11:54 Partly Cloudy 71 21.7 42 5.6 35 35 S 14 22 30.32 1027 10 16 0.00 0.00
12:54 pm 12:54 Partly Cloudy 74 23.3 34 1.1 23 23 SSW 16 26 30.28 1026 10 16 0.00 0.00
1:54 pm 13:54 Mostly Cloudy 74 23.3 35 1.7 24 24 S 10 17 30.26 1025 10 16 0.00 0.00
2:54 pm 14:54 Mostly Cloudy 75 23.9 36 2.2 24 24 S 10 17 30.25 1024 10 16 0.00 0.00
3:54 pm 15:54 Partly Cloudy 75 23.9 37 2.8 25 25 S 12 19 30.22 1024 10 16 0.00 0.00
4:54 pm 16:54 Mostly Cloudy 76 24.4 39 3.9 26 26 S 13 20 30.21 1023 10 16 0.00 0.00
5:54 pm 17:54 Mostly Cloudy 74 23.3 38 3.3 27 27 S 14 22 30.22 1023 10 16 0.00 0.00
6:54 pm 18:54 Mostly Cloudy 72 22.2 38 3.3 29 29 S 13 20 30.22 1023 10 16 0.00 0.00
7:54 pm 19:54 Cloudy 68 20 36 2.2 31 31 SSW 9 15 30.22 1023 10 16 0.00 0.00
8:54 pm 20:54 Mostly Cloudy 65 18.3 41 5 42 42 SSW 10 17 30.21 1023 10 16 0.00 0.00
9:54 pm 21:54 Mostly Cloudy 64 17.8 44 6.7 48 48 SSE 7 11 30.22 1023 10 16 0.00 0.00
10:54 pm 22:54 Cloudy 64 17.8 45 7.2 50 50 SSW 5 7 30.22 1024 10 16 0.00 0.00
11:54 pm 23:54 Cloudy 63 17.2 48 8.9 58 58 SE 6 9 30.22 1023 10 16 0.00 0.00

Powered by AerisWeather